Dallas/Ft Worth, TX

8:41 PM CST on November 22, 2019 (GMT -0600)
Dallas-Fort Worth International

Weather History for KDFW - September, 2019

Change the Weather History Date:

Wednesday, September 11, 2019

  Actual Average Record
Temperature  
Mean Temperature 83 °F 80 °F  
Max Temperature 95 °F 90 °F 102 °F (2000)
Min Temperature 73 °F 69 °F 53 °F (1968)
Degree Days  
Heating Degree Days 0 0  
Month to date heating degree days 0  
Since 1 July heating degree days 0  
Cooling Degree Days 18 15  
Month to date cooling degree days 180  
Year to date cooling degree days 2362  
Growing Degree Days 33 (Base 50)    
Moisture  
Dew Point 68 °F    
Average Humidity 63    
Maximum Humidity 87    
Minimum Humidity 36    
Precipitation  
Precipitation 0.00 in 0.09 in 3.34 in (1933)
Month to date precipitation 1.04  
Year to date precipitation 25.15  
Sea Level Pressure  
Sea Level Pressure 30.03 in    
Wind  
Wind Speed 11 mph ()    
Max Wind Speed 20 mph    
Max Gust Speed 28 mph    
Visibility 10.0 miles    
Events      
T = Trace of Precipitation, MM = Missing Value Source: Averaged Metar Reports

Daily Weather History Graph

Daily Weather History Graph

Search for Another Location

Airport or City:

Astronomy

Sep. 11, 2019 Rise Set
Actual Time 7:09 AM CDT 7:40 PM CDT
Civil Twilight 6:44 AM CDT 8:04 PM CDT
Nautical Twilight 6:15 AM CDT 8:33 PM CDT
Astronomical Twilight 5:45 AM CDT 9:03 PM CDT
Moon 6:43 PM CDT (9/11) 4:44 AM CDT (9/11)
Length of Visible Light 13h 20m
Length of Day
12h 30m
Waxing Gibbous, 95% of the Moon is Illuminated
Sep 11
Waxing Gibbous
Sep 13
Full
Sep 21
Last Quarter
Sep 28
New
Oct 5
First Quarter

Hourly Weather History & Observations

Time (CDT) Temp. Heat Index Dew Point Humidity Pressure Visibility Wind Dir Wind Speed Gust Speed Precip Events Conditions
12:53 AM 78.1 °F - 66.0 °F 66% 30.03 in 10.0 mi South 9.2 mph - N/A   Partly Cloudy
1:53 AM 77.0 °F - 66.9 °F 71% 30.04 in 10.0 mi South 12.7 mph - N/A   Partly Cloudy
2:53 AM 77.0 °F - 68.0 °F 74% 30.02 in 10.0 mi South 10.4 mph - N/A   Clear
3:53 AM 75.9 °F - 68.0 °F 76% 30.03 in 10.0 mi South 9.2 mph - N/A   Clear
4:53 AM 73.9 °F - 68.0 °F 82% 30.04 in 10.0 mi South 9.2 mph - N/A   Clear
5:53 AM 73.0 °F - 68.0 °F 84% 30.05 in 10.0 mi SSE 5.8 mph - N/A   Partly Cloudy
6:53 AM 73.0 °F - 69.1 °F 87% 30.07 in 10.0 mi SSE 8.1 mph - N/A   Scattered Clouds
7:53 AM 75.0 °F - 69.1 °F 82% 30.09 in 10.0 mi SSE 8.1 mph - N/A   Scattered Clouds
8:53 AM 78.1 °F - 70.0 °F 76% 30.10 in 10.0 mi South 8.1 mph - N/A   Scattered Clouds
9:53 AM 81.0 °F 84.9 °F 71.1 °F 72% 30.11 in 10.0 mi South 11.5 mph - N/A   Scattered Clouds
10:53 AM 84.0 °F 89.6 °F 72.0 °F 67% 30.10 in 10.0 mi South 16.1 mph - N/A   Mostly Cloudy
11:53 AM 87.1 °F 92.8 °F 71.1 °F 59% 30.09 in 10.0 mi SSW 17.3 mph 24.2 mph N/A   Scattered Clouds
12:53 PM 90.0 °F 95.4 °F 70.0 °F 52% 30.06 in 10.0 mi South 15.0 mph 21.9 mph N/A   Scattered Clouds
1:53 PM 93.0 °F 96.4 °F 66.9 °F 42% 30.04 in 10.0 mi South 19.6 mph 26.5 mph N/A   Scattered Clouds
2:53 PM 91.9 °F 95.4 °F 66.9 °F 44% 30.00 in 10.0 mi SSW 15.0 mph 19.6 mph N/A   Mostly Cloudy
3:53 PM 93.9 °F 95.6 °F 64.0 °F 37% 29.97 in 10.0 mi SSW 16.1 mph 27.6 mph N/A   Scattered Clouds
4:53 PM 93.9 °F 95.2 °F 63.0 °F 36% 29.95 in 10.0 mi South 12.7 mph - N/A   Mostly Cloudy
5:53 PM 93.9 °F 95.6 °F 64.0 °F 37% 29.94 in 10.0 mi SE 15.0 mph - N/A   Mostly Cloudy
6:53 PM 88.0 °F 90.3 °F 66.0 °F 48% 29.96 in 10.0 mi SE 19.6 mph - N/A   Mostly Cloudy
7:53 PM 84.9 °F 87.6 °F 66.9 °F 55% 29.98 in 10.0 mi SSE 15.0 mph 26.5 mph N/A   Partly Cloudy
8:53 PM 84.0 °F 86.3 °F 66.0 °F 55% 30.01 in 10.0 mi SSE 16.1 mph - N/A   Partly Cloudy
9:53 PM 81.0 °F 83.8 °F 68.0 °F 65% 30.04 in 10.0 mi South 18.4 mph - N/A   Scattered Clouds
10:53 PM 79.0 °F - 66.9 °F 66% 30.03 in 10.0 mi South 12.7 mph - N/A   Scattered Clouds
11:53 PM 78.1 °F - 66.9 °F 68% 30.01 in 10.0 mi South 13.8 mph - N/A   Partly Cloudy